Starlink 11616

operational
NORAD ID: 63137 Int'l Des: 2025-043 Owner: SPXS Country: US Constellation: starlink
LEOCIRCULAR

About Starlink 11616

Description loading...

Live Position

Loading 3D Globe...

Upcoming Passes

Altitude History

Altitude vs Time

uPlot chart will show altitude changes over time

Two-Line Element Set

1 63137U 25043F 26101.86653793 .00145202 00000-0 11111-2 0 9992
2 63137 42.9975 50.4105 0000305 206.8379 153.2473 15.70933613 64694
Epoch: Apr 11, 2026 • Age: 9 hours

Current Status

Altitude 369.1 km
Velocity 7.69 km/s
Sub-Earth Point -43.03°S, 29.02°E
Launch Date Mar 3, 2025
Age 1.1 years
Type internet

Technical Details

Classification Payload
Mass 960.00 kg
Dry Mass 910.00 kg
Total Mass 960.00 kg
Length 0.30 m
Diameter 4.10 m
Span 29.00 m
Shape Box + pan
Manufacturer SPXS
Bus Type Starlink V2MD
Phase Status In Orbit
Owner/State SPXS/US

Large Constellations

Loading constellations...